Location: Derby
(52.9213°N, 1.4761°W)
Time: 16:27:02
(UTC+01:00)

Vanguard 1 - Pass Details

Date: 26 May 2025
Orbit: 649 x 3822 km, 34.3° (Epoch: 14 June)

Event Time Altitude Azimuth Distance (km) Brightness Sun altitude
Rises 20:14:56 0° 261° (W) 7,389 15.5 6.7°
Reaches altitude 10° 20:21:17 10° 253° (WSW) 5,916 14.8 5.8°
Maximum altitude 20:34:14 29° 203° (SSW) 3,355 12.8 4.1°
Drops below altitude 10° 20:42:28 10° 148° (SSE) 3,690 12.5 3.1°
Sets 20:45:23 0° 136° (SE) 4,311 12.7 2.7°
